Regional Weather Roundup
Issued by NWS

Home | Current Version | Previous Version | Graphics & Text | Print | Product List | Glossary On
Versions: 1 2 3 4 5 6 7 8 9 10 11 12 13 14 15 16 17 18 19 20 21 22 23 24 25 26 27 28 29 30 31 32 33 34 35 36 37 38 39 40 41 42 43 44 45 46 47 48 49 50
000
ASUS43 KLOT 221704
RWRIL

ILLINOIS REGIONAL WEATHER ROUNDUP
NATIONAL WEATHER SERVICE CHICAGO/ROMEOVILLE IL
1200 PM CDT THU JUN 22 2017

NOTE: "FAIR" INDICATES FEW OR NO CLOUDS BELOW 12,000 FEET WITH NO
SIGNIFICANT WEATHER AND/OR OBSTRUCTIONS TO VISIBILITY.

* THESE STATIONS ARE NOT UNDER NWS QUALITY CONTROL. THEY ALSO MAY NOT
  REPORT WEATHER SUCH AS PRECIPITATION OR FOG.

ILZ001-002-007-009-015-016-024-221800-
NORTHWEST ILLINOIS

CITY           SKY/WX    TMP DP  RH WIND       PRES   REMARKS
MOLINE         CLOUDY    83  68  60 SW3       29.80R HX  86
STERLING*      CLOUDY    82  71  69 VRB5      29.82S HX  86
SAVANNA*       MOSUNNY   81  69  66 SW3       29.81F HX  83
$$

ILZ003-004-008-010-011-017-018-221800-
NORTH CENTRAL ILLINOIS

CITY           SKY/WX    TMP DP  RH WIND       PRES   REMARKS
ROCKFORD       CLOUDY    84  68  58 W12       29.83F HX  87
FREEPORT*      MOSUNNY   81  68  65 SW9       29.83F HX  83
ROCHELLE*      CLOUDY    82  68  63 SW10      29.84S HX  85
DE KALB*       CLOUDY    82  69  64 S14       29.85S HX  86
PERU*          CLOUDY    81  69  67 S14G20    29.83F HX  84
$$

ILZ005-006-012>014-019>023-221800-
NORTHEAST ILLINOIS

CITY           SKY/WX    TMP DP  RH WIND       PRES   REMARKS
CHICAGO-OHARE  PTSUNNY   86  68  54 SW17G24   29.82S HX  89
CHICAGO-MIDWAY CLOUDY    86  68  54 S14       29.82F HX  89
AURORA         CLOUDY    84  70  62 S14       29.85R HX  88
LANSING*       CLOUDY    83  67  59 S18       29.85F HX  85
JOLIET*        CLOUDY    83  72  67 S12G21    29.85S HX  89
WAUKEGAN       CLOUDY    82  69  64 SW16G23   29.80S HX  85
DUPAGE AIRPORT MOSUNNY   84  71  65 SW14      29.82S HX  89
WHEELING       PTSUNNY   84  69  60 SW13G21   29.82S HX  88
MORRIS*        CLOUDY    82  69  64 S15       29.83S HX  86
ROMEOVILLE*    CLOUDY    83  67  58 S16G23    29.84S HX  86
NORTHERLY ISL    N/A     84  63  49 SW9         N/A  HX  85
$$

LMZ740>746-221800-
SOUTHERN LAKE MICHIGAN

STATION/POSITION SKY/WX   TEMP    WIND        PRES    VSBY  WAVE
                          AIR SEA DIR/SP/G                  HT/PER
                          (F)     (DEG/KT/KT) (MB)    (MI)  (FT/S)
SOUTHERN BUOY              67 61  190/ 19/ 23 1008.4          2/ 4
WILMETTE HARBOR            75 64  220/  8/ 16   N/A           1/ 2
HARRISON CRIB              81     200/ 17/ 18   N/A
BURNHAM HARBOR             84                   N/A
CALUMET HARBOR             83     180/ 11/ 17 1009.7F
BURNS HARBOR               80     200/ 16/ 21 1011.2F
MICHIGAN CITY              80     190/ 16/ 19   N/A
MICHIGAN CITY 6N           76 68  190/ 12/ 16   N/A           1/ 2
ST. JOSEPH                 73 69  220/  6/  8 1010.3F         2/ 3
$$

ILZ025>027-034>036-040-047-049-050-058-095>099-221800-
WEST-CENTRAL ILLINOIS

CITY           SKY/WX    TMP DP  RH WIND       PRES   REMARKS
QUINCY         CLOUDY    80  71  74 S12       29.80S HX  84
GALESBURG*     PTSUNNY   83  70  64 S10       29.82F HX  87
MACOMB*        CLOUDY    82  70  68 S10       29.83S HX  85
JACKSONVILLE*  CLOUDY    80  71  74 S13G18    29.83F HX  83
PITTSFIELD*    CLOUDY    80  72  78 S12       29.83S HX  83
$$

ILZ028>032-037-038-041>044-048-051>054-059>061-221800-
CENTRAL ILLINOIS

CITY           SKY/WX    TMP DP  RH WIND       PRES   REMARKS
PONTIAC        CLOUDY    84  75  73 S14G22    29.86F HX  91
BLOOMINGTON    CLOUDY    82  72  71 S16       29.87F HX  87
DECATUR        PTSUNNY   81  70  69 S20G25    29.87S HX  84
PEORIA         CLOUDY    82  71  69 S14G23    29.83S HX  86
LACON*         CLOUDY    82  72  70 S9        29.82F HX  87
LINCOLN*       PTSUNNY   83  73  70 S7G20     29.85S HX  89
SPRINGFIELD    CLOUDY    83  73  72 S13       29.84F HX  89
TAYLORVILLE    CLOUDY    78  71  78 S12G17    29.87S HX  81
$$

ILZ033-039-045-046-055>057-062-063-221800-
EAST-CENTRAL ILLINOIS

CITY           SKY/WX    TMP DP  RH WIND       PRES   REMARKS
CHAMPAIGN      CLOUDY    84  70  62 S18G26    29.88F HX  88
RANTOUL*       CLOUDY    84  73  67 S14G20    29.88F HX  90
MATTOON        CLOUDY    80  72  76 S9G21     29.89F HX  84
$$

ILZ079-100>102-221800-
SOUTHWEST ILLINOIS

CITY           SKY/WX    TMP DP  RH WIND       PRES   REMARKS
ALTON          CLOUDY    77  72  83 S12       29.86F
BELLEVILLE     DRIZZLE   75  73  93 SW7       29.88F
CAHOKIA*       CLOUDY    82  71  69 SE13G20   29.85F HX  86
SPARTA*        CLOUDY    77  71  80 S12       29.89F
$$

ILZ064>066-069>071-074>076-080>082-084>086-088>090-092>094-221800-
SOUTH-CENTRAL ILLINOIS

CITY           SKY/WX    TMP DP  RH WIND       PRES   REMARKS
CARBONDALE     LGT RAIN  76  74  93 SE12      29.89F FOG
CAIRO*         DRIZZLE   75  74  96 SE9       29.88F
EFFINGHAM*     PTSUNNY   82  71  69 SE14G20   29.92S HX  86
MARION         CLOUDY    77  77 100 SE9       29.90F
MT. VERNON     CLOUDY    79  72  79 SE8       29.90F HX  82
CENTRALIA*     CLOUDY    80  73  79 SE8       29.89F HX  84
SALEM*         RAIN      76  72  86 S7        29.90S
$$

ILZ067-068-072-073-078-083-087-091-221800-
SOUTHEAST ILLINOIS

CITY           SKY/WX    TMP DP  RH WIND       PRES   REMARKS
LAWRENCEVILLE  CLOUDY    76  72  87 S9        29.94F
FLORA*         CLOUDY    78  74  87 S8        29.92S HX  80
FAIRFIELD*     CLOUDY    79  70  75 S9G17     29.91S HX  81
HARRISBURG*    CLOUDY    78  72  81 SE12G20   29.91F HX  80
ROBINSON*      CLOUDY    77  70  79 S15G23    29.95R
CARMI*         CLOUDY    77  71  80 SE15      29.92S
$$

ABBREVIATIONS USED IN REMARKS
   TC - TEMPERATURE IN CELSIUS
  WCI - WIND CHILL INDEX
   HX - HEAT INDEX
  VSB - VISIBILITY
$$




USA.gov is the U.S. government's official web portal to all federal, state and local government web resources and services.